GFSNE_sfc_vis_270.txt.gz
Visibility
15.0 15.0 15.0 15.0 15.0 15.0 15.0 15.0 15.0 15.0 15.0 15.0 15.0 15.0 15.0 15.0 15.0 15.0 15.0 15.0 15.0 15.0 15.0 15.0 15.0 15.0 15.0 15.0 15.0 15.0 15.0 15.0 15.0 15.0 15.0 15.0 15.0 15.0
15.0 15.0 15.0 15.0 15.0 15.0 15.0 15.0 15.0 15.0 15.0 15.0 15.0 15.0 15.0 15.0 15.0 15.0 15.0 15.0 15.0 15.0 15.0 15.0 15.0 15.0 15.0 15.0 15.0 15.0 13.6 10.7 15.0 12.0 15.0 15.0 15.0 15.0
15.0 15.0 15.0 15.0 15.0 15.0 15.0 15.0 15.0 15.0 15.0 15.0 15.0 15.0 15.0 15.0 15.0 15.0 15.0 15.0 15.0 15.0 15.0 15.0 15.0 15.0 15.0 15.0 15.0 13.9 13.8 7.7 5.5 15.0 15.0 15.0 15.0 15.0
15.0 15.0 15.0 15.0 15.0 15.0 15.0 15.0 15.0 15.0 15.0 15.0 15.0 15.0 15.0 15.0 15.0 15.0 15.0 15.0 15.0 12.2 15.0 14.6 15.0 15.0 15.0 15.0 15.0 9.0 9.3 14.8 14.9 15.0 15.0 15.0 15.0 15.0
15.0 15.0 15.0 15.0 15.0 15.0 15.0 15.0 15.0 15.0 15.0 15.0 15.0 15.0 15.0 15.0 0.5 15.0 15.0 15.0 15.0 7.4 14.7 15.0 15.0 15.0 15.0 15.0 15.0 15.0 15.0 15.0 15.0 15.0 15.0 15.0 15.0 15.0
15.0 15.0 15.0 15.0 15.0 15.0 15.0 15.0 15.0 15.0 15.0 15.0 15.0 15.0 15.0 2.3 13.6 0.2 0.2 15.0 8.6 12.4 15.0 15.0 15.0 15.0 15.0 15.0 15.0 15.0 15.0 15.0 15.0 15.0 15.0 15.0 15.0 15.0
15.0 15.0 15.0 15.0 15.0 15.0 15.0 15.0 15.0 15.0 15.0 15.0 13.6 4.1 0.2 0.1 0.1 7.1 0.9 0.6 4.8 14.0 15.0 15.0 15.0 15.0 11.6 15.0 15.0 15.0 15.0 15.0 15.0 15.0 15.0 15.0 15.0 15.0
15.0 15.0 15.0 15.0 0.2 14.7 5.9 15.0 15.0 15.0 15.0 15.0 15.0 7.7 10.2 15.0 15.0 1.3 0.1 0.0 0.0 4.2 2.9 0.1 14.9 6.4 15.0 15.0 13.7 15.0 15.0 15.0 15.0 15.0 15.0 15.0 15.0 15.0
15.0 15.0 15.0 15.0 15.0 15.0 0.1 0.0 0.1 0.1 6.4 11.7 15.0 15.0 8.0 11.6 5.7 2.7 0.7 4.7 3.3 0.1 11.5 0.0 0.6 15.0 15.0 10.7 10.5 15.0 15.0 15.0 15.0 15.0 15.0 15.0 15.0 15.0
15.0 15.0 15.0 15.0 15.0 9.9 15.0 9.4 3.0 7.4 3.7 13.9 15.0 15.0 15.0 15.0 9.5 15.0 8.5 0.7 0.2 0.1 15.0 0.1 0.1 0.4 1.2 12.7 9.0 15.0 15.0 15.0 15.0 15.0 15.0 15.0 15.0 15.0
8.7 15.0 15.0 15.0 0.3 0.0 15.0 15.0 15.0 15.0 0.1 0.1 0.1 2.1 15.0 15.0 13.2 15.0 0.3 0.1 0.1 0.1 2.5 14.1 0.1 0.9 0.1 0.4 14.0 11.5 15.0 15.0 15.0 15.0 15.0 15.0 15.0 15.0
3.5 5.1 0.0 10.2 0.0 0.0 8.1 15.0 15.0 15.0 0.1 0.0 0.1 0.1 0.4 15.0 14.6 15.0 15.0 0.8 3.5 0.1 0.9 14.0 0.1 1.4 0.1 13.8 15.0 15.0 15.0 15.0 15.0 15.0 15.0 15.0 15.0 15.0
3.3 9.9 6.7 0.0 0.0 0.0 0.1 15.0 15.0 11.5 2.2 13.0 8.6 0.1 0.2 10.8 15.0 14.1 11.5 14.5 7.8 4.0 13.4 5.2 2.8 0.7 0.5 0.0 4.5 15.0 15.0 15.0 15.0 15.0 15.0 15.0 15.0 13.2
0.5 1.9 0.5 0.1 0.0 0.0 0.0 1.4 0.0 0.0 0.3 0.1 0.0 0.0 0.0 0.1 2.5 15.0 15.0 15.0 15.0 15.0 12.5 15.0 15.0 11.9 3.1 0.1 0.1 4.5 15.0 15.0 15.0 15.0 15.0 15.0 12.8 5.9
0.1 0.1 0.1 0.1 0.1 0.0 0.0 0.0 0.0 0.1 0.1 0.0 0.0 0.0 0.1 0.2 12.0 6.9 3.4 15.0 15.0 15.0 15.0 15.0 15.0 10.4 14.9 1.5 0.1 0.2 0.1 5.6 15.0 15.0 15.0 3.3 0.7 2.2
0.1 0.0 0.0 0.0 0.1 0.1 0.0 0.0 0.0 0.0 0.0 0.1 0.1 0.1 0.1 0.1 0.1 1.5 0.1 0.1 0.1 0.1 4.6 12.9 14.1 11.4 10.1 11.0 10.6 0.2 14.9 2.2 10.7 15.0 15.0 3.9 1.9 15.0
0.0 0.0 0.0 0.0 0.0 0.0 0.0 0.0 0.0 0.0 0.0 0.0 0.0 0.0 0.0 0.1 0.1 0.4 13.6 0.6 1.3 0.2 0.1 0.2 10.4 12.7 14.8 15.0 14.8 15.0 12.0 7.3 15.0 15.0 0.9 0.1 2.4 1.8
0.0 0.0 0.0 0.0 0.0 0.0 0.1 0.1 0.1 0.0 0.0 0.0 0.0 0.0 0.0 0.0 0.1 0.1 9.3 10.5 0.5 2.7 0.3 0.2 0.3 0.4 0.1 3.8 7.0 11.0 15.0 15.0 5.5 0.2 0.2 0.2 0.9 12.8
0.0 0.0 0.0 0.0 0.0 0.0 0.0 0.0 0.0 0.0 0.0 0.0 0.0 0.0 0.0 0.1 0.1 0.1 0.2 2.2 0.5 13.7 12.5 15.0 15.0 15.0 0.4 0.1 0.3 7.8 14.2 5.8 0.9 0.1 0.3 2.0 14.9 2.4
0.5 0.1 0.1 0.1 0.1 0.1 0.1 0.1 0.1 0.1 0.0 0.0 0.0 0.0 0.0 0.0 0.1 0.1 0.1 0.1 0.5 7.0 1.5 12.1 15.0 15.0 15.0 11.3 0.1 0.1 4.7 0.8 0.2 0.1 0.2 1.0 2.1 7.8
0.2 0.2 9.8 0.3 0.2 0.1 0.1 0.0 0.0 0.0 0.0 0.0 0.0 0.0 0.0 0.1 0.0 0.1 0.1 0.2 0.7 10.8 0.3 0.3 15.0 10.6 1.3 0.7 0.4 0.3 0.1 0.0 2.1 1.6 0.3 0.9 1.9 1.4
0.2 0.1 1.9 11.6 0.4 0.3 0.1 0.0 0.0 0.0 0.0 0.0 0.0 0.0 0.0 0.0 0.0 0.1 0.1 0.1 0.3 9.2 13.5 4.2 0.1 0.2 1.3 3.2 0.3 0.2 0.1 0.1 0.0 0.1 5.4 11.9 3.0 1.1
15.0 15.0 0.4 0.2 0.4 0.3 0.3 0.1 0.1 0.0 0.1 0.1 0.0 0.0 0.0 0.0 0.1 0.2 0.2 4.0 4.5 0.7 5.3 0.1 0.4 7.6 1.1 0.3 0.3 0.1 0.1 0.1 0.1 0.1 0.1 2.1 4.8 4.4

GFSNE_sfc_vis_273.txt.gz
Visibility
15.0 15.0 15.0 15.0 15.0 15.0 15.0 15.0 15.0 15.0 15.0 15.0 15.0 15.0 15.0 15.0 15.0 15.0 15.0 15.0 15.0 15.0 15.0 15.0 15.0 15.0 15.0 15.0 15.0 15.0 15.0 15.0 15.0 15.0 6.0 11.2 15.0 15.0
15.0 15.0 15.0 15.0 15.0 15.0 15.0 15.0 15.0 15.0 15.0 15.0 15.0 15.0 15.0 15.0 15.0 15.0 15.0 15.0 15.0 15.0 15.0 15.0 15.0 15.0 15.0 15.0 15.0 15.0 15.0 15.0 15.0 15.0 15.0 15.0 15.0 15.0
15.0 15.0 15.0 15.0 15.0 15.0 15.0 15.0 15.0 15.0 15.0 15.0 15.0 15.0 15.0 15.0 15.0 15.0 15.0 15.0 15.0 15.0 15.0 15.0 14.6 12.8 14.7 15.0 15.0 15.0 15.0 15.0 15.0 15.0 15.0 15.0 15.0 15.0
15.0 15.0 15.0 15.0 15.0 15.0 15.0 15.0 15.0 15.0 15.0 15.0 15.0 15.0 15.0 15.0 14.5 15.0 15.0 15.0 15.0 15.0 15.0 15.0 15.0 15.0 15.0 15.0 15.0 15.0 15.0 15.0 15.0 15.0 15.0 15.0 15.0 15.0
15.0 15.0 15.0 15.0 15.0 15.0 15.0 15.0 15.0 15.0 15.0 15.0 15.0 15.0 15.0 12.4 0.1 13.3 15.0 15.0 15.0 15.0 15.0 15.0 15.0 15.0 15.0 15.0 15.0 15.0 15.0 8.2 15.0 15.0 15.0 15.0 15.0 15.0
15.0 15.0 15.0 15.0 15.0 15.0 15.0 15.0 15.0 15.0 15.0 15.0 15.0 15.0 15.0 0.2 6.0 0.1 0.1 0.6 0.1 3.7 13.9 13.9 15.0 15.0 15.0 15.0 15.0 15.0 14.9 15.0 15.0 15.0 15.0 15.0 15.0 15.0
7.8 15.0 15.0 15.0 15.0 15.0 15.0 15.0 15.0 15.0 15.0 15.0 13.5 3.5 0.1 0.0 0.0 0.1 0.1 0.1 3.4 0.2 0.1 0.4 6.2 15.0 13.6 15.0 15.0 9.4 15.0 15.0 15.0 15.0 15.0 15.0 15.0 15.0
15.0 15.0 15.0 15.0 15.0 14.8 15.0 15.0 15.0 15.0 15.0 15.0 13.1 6.0 0.1 0.1 0.3 0.1 0.1 0.0 0.0 0.4 0.1 0.0 10.5 0.2 7.4 15.0 15.0 15.0 15.0 14.8 15.0 15.0 15.0 15.0 15.0 15.0
4.2 15.0 15.0 15.0 15.0 15.0 2.0 0.3 0.2 13.9 6.5 15.0 15.0 15.0 5.2 5.1 5.1 0.2 0.1 0.1 0.1 0.1 2.5 0.0 0.1 0.1 9.0 15.0 10.4 15.0 13.3 15.0 15.0 15.0 15.0 15.0 15.0 15.0
10.5 14.0 9.5 8.1 15.0 11.9 15.0 15.0 15.0 14.2 4.5 13.7 15.0 15.0 15.0 15.0 9.9 12.4 8.7 0.4 0.1 0.1 15.0 0.0 0.0 0.0 4.0 15.0 12.8 15.0 8.9 15.0 15.0 15.0 15.0 15.0 15.0 15.0
1.6 3.4 13.9 4.3 1.0 0.0 15.0 15.0 15.0 15.0 2.9 3.1 15.0 4.4 0.7 15.0 15.0 15.0 0.1 0.0 0.0 0.0 0.9 3.0 0.0 0.0 0.1 0.1 5.3 13.4 13.1 15.0 15.0 15.0 15.0 15.0 15.0 15.0
15.0 3.0 0.1 0.1 0.1 0.0 8.1 14.8 14.3 15.0 3.5 1.9 0.1 0.1 0.1 2.8 0.9 3.9 15.0 0.1 0.3 0.0 0.1 2.4 0.1 0.2 0.1 5.3 2.7 14.0 14.6 4.5 9.9 9.6 15.0 15.0 15.0 15.0
3.3 15.0 3.3 0.1 0.0 0.0 0.1 15.0 14.7 11.5 0.4 13.0 13.4 3.2 4.2 1.5 15.0 15.0 15.0 9.3 14.6 12.5 8.7 14.4 1.7 0.9 2.4 0.1 0.2 1.4 7.6 15.0 12.4 11.5 7.3 15.0 15.0 15.0
0.1 0.2 0.1 0.0 0.1 0.0 0.1 0.0 0.0 0.0 1.8 0.2 0.4 0.1 0.0 0.0 1.4 15.0 15.0 15.0 15.0 15.0 5.2 14.3 4.8 7.1 1.8 0.1 0.1 0.7 0.6 8.6 8.3 13.3 12.4 15.0 15.0 15.0
0.1 0.1 0.1 0.1 0.1 0.1 0.0 0.0 0.0 0.1 0.1 0.1 0.0 0.1 0.1 0.1 0.4 2.0 10.4 5.3 4.3 7.4 12.6 14.3 9.2 14.7 15.0 13.5 0.2 0.1 0.1 1.2 14.7 10.1 3.4 15.0 14.7 15.0
0.1 0.1 0.1 0.1 0.1 0.1 0.1 0.1 0.1 0.1 0.1 0.1 0.1 0.1 0.0 0.0 0.0 0.1 0.1 0.1 0.1 0.1 3.9 12.6 15.0 14.6 14.9 14.5 15.0 0.2 14.9 0.9 15.0 15.0 11.1 13.8 15.0 15.0
0.0 0.0 0.0 0.0 0.0 0.0 0.0 0.0 0.0 0.0 0.0 0.0 0.0 0.1 0.0 0.1 0.1 0.1 0.1 0.1 0.1 0.1 0.0 0.1 15.0 14.6 15.0 13.3 0.3 15.0 15.0 5.7 11.0 14.4 1.1 0.7 1.5 2.0
0.0 0.0 0.0 0.0 0.0 0.0 0.0 0.0 0.0 0.0 0.0 0.0 0.0 0.1 0.0 0.1 0.1 0.1 0.4 0.2 0.1 0.3 0.1 0.1 0.1 0.1 0.3 4.7 12.1 15.0 15.0 15.0 9.9 6.8 1.6 0.9 0.5 0.4
0.1 0.1 0.0 0.0 0.0 0.1 0.0 0.0 0.0 0.0 0.0 0.0 0.0 0.0 0.0 0.1 0.1 0.1 0.1 0.1 0.1 0.4 0.9 0.2 0.1 0.4 0.1 0.0 1.3 7.7 15.0 15.0 3.8 1.2 1.2 0.7 0.6 0.4
1.3 0.4 0.1 0.1 0.1 0.1 0.1 0.0 0.0 0.0 0.0 0.0 0.1 0.0 0.0 0.0 0.1 0.1 0.1 0.1 0.1 0.1 0.1 0.4 0.2 9.5 1.6 3.6 9.2 0.2 9.5 13.0 8.7 2.1 0.7 0.2 0.1 0.4
15.0 15.0 15.0 3.6 0.1 0.1 0.1 0.1 0.0 0.0 0.0 0.0 0.0 0.0 0.0 0.0 0.0 0.0 0.1 0.1 0.1 0.1 0.1 0.1 2.9 11.4 15.0 12.0 2.3 0.1 0.1 1.9 12.3 3.4 0.3 0.1 0.1 0.1
15.0 15.0 15.0 15.0 15.0 0.2 0.1 0.1 0.0 0.0 0.0 0.0 0.0 0.0 0.0 0.0 0.0 0.0 0.0 0.0 0.1 0.1 0.1 0.6 0.3 0.2 0.2 11.7 12.1 2.4 0.2 0.1 0.1 1.7 1.4 0.8 0.6 0.1
15.0 15.0 15.0 15.0 15.0 11.6 0.1 0.1 0.1 0.0 0.0 0.0 0.0 0.0 0.0 0.0 0.0 0.0 0.0 0.0 0.1 0.1 0.2 0.1 0.1 1.6 15.0 14.7 1.5 1.6 0.1 0.1 0.1 0.1 0.1 0.1 0.1 0.1

GFSNE_sfc_vis_276.txt.gz
Visibility
15.0 15.0 15.0 15.0 15.0 15.0 15.0 15.0 15.0 15.0 15.0 15.0 15.0 15.0 15.0 15.0 13.2 7.9 15.0 3.8 15.0 15.0 15.0 15.0 15.0 15.0 15.0 15.0 15.0 15.0 15.0 15.0 15.0 15.0 15.0 15.0 15.0 15.0
15.0 15.0 15.0 15.0 15.0 15.0 15.0 15.0 15.0 15.0 15.0 15.0 15.0 15.0 15.0 15.0 12.3 15.0 15.0 3.7 15.0 15.0 15.0 15.0 15.0 15.0 15.0 15.0 15.0 15.0 15.0 15.0 15.0 15.0 15.0 15.0 15.0 15.0
15.0 15.0 15.0 15.0 15.0 15.0 15.0 15.0 15.0 15.0 15.0 15.0 15.0 15.0 15.0 15.0 15.0 14.8 15.0 15.0 12.3 15.0 15.0 15.0 15.0 15.0 15.0 12.7 15.0 15.0 15.0 15.0 15.0 15.0 15.0 15.0 15.0 15.0
15.0 15.0 15.0 15.0 15.0 15.0 15.0 15.0 15.0 15.0 15.0 15.0 15.0 15.0 15.0 15.0 15.0 0.3 0.2 15.0 15.0 15.0 15.0 15.0 15.0 15.0 15.0 15.0 15.0 15.0 15.0 15.0 15.0 15.0 15.0 15.0 15.0 15.0
4.6 15.0 15.0 15.0 15.0 15.0 15.0 15.0 15.0 15.0 15.0 15.0 15.0 15.0 14.0 15.0 0.1 2.5 0.1 0.2 12.8 15.0 15.0 15.0 15.0 15.0 15.0 15.0 15.0 15.0 15.0 15.0 15.0 15.0 15.0 15.0 15.0 15.0
4.4 5.5 15.0 15.0 15.0 15.0 15.0 15.0 15.0 15.0 15.0 15.0 15.0 15.0 10.1 0.2 8.4 0.1 0.0 0.2 0.1 4.2 7.1 9.4 15.0 15.0 15.0 15.0 15.0 15.0 15.0 15.0 15.0 15.0 15.0 15.0 15.0 15.0
3.1 6.4 13.8 15.0 15.0 15.0 15.0 15.0 12.2 15.0 15.0 15.0 15.0 2.8 0.0 0.0 0.0 0.1 0.1 0.0 0.1 0.1 0.1 0.1 0.1 1.9 15.0 15.0 15.0 15.0 15.0 15.0 15.0 15.0 15.0 15.0 15.0 15.0
2.8 1.7 14.9 15.0 2.4 14.8 15.0 5.2 15.0 5.5 5.2 15.0 15.0 0.8 1.0 13.8 0.4 0.1 0.0 0.0 0.0 0.1 0.0 0.0 0.2 0.1 4.2 15.0 15.0 15.0 15.0 15.0 15.0 15.0 15.0 15.0 15.0 15.0
15.0 15.0 15.0 15.0 4.1 13.4 7.8 3.6 0.3 6.9 15.0 15.0 15.0 15.0 15.0 6.2 0.4 0.1 0.0 0.0 1.3 0.0 0.2 0.0 0.0 0.0 1.1 15.0 15.0 15.0 15.0 15.0 15.0 15.0 15.0 15.0 15.0 15.0
15.0 15.0 15.0 15.0 13.6 14.8 15.0 15.0 3.8 3.6 4.9 15.0 14.1 15.0 15.0 9.3 15.0 15.0 8.3 0.2 0.0 0.0 1.6 0.0 0.0 0.0 0.1 1.3 15.0 15.0 15.0 15.0 15.0 15.0 14.2 15.0 15.0 15.0
15.0 15.0 13.8 14.4 1.1 0.1 2.3 5.8 3.7 3.6 8.7 15.0 15.0 15.0 15.0 15.0 15.0 15.0 0.1 0.0 0.0 0.0 0.1 0.0 0.0 0.0 0.0 0.0 0.4 15.0 15.0 15.0 11.5 14.9 15.0 14.1 15.0 10.4
15.0 15.0 0.1 0.1 0.0 0.1 1.8 1.7 1.1 14.4 3.1 4.1 1.1 0.1 0.1 1.3 1.3 15.0 15.0 0.1 0.1 0.0 0.0 0.1 0.0 0.0 0.0 0.0 0.1 0.5 15.0 15.0 15.0 12.8 15.0 13.5 15.0 15.0
14.8 15.0 15.0 0.0 0.0 0.0 0.1 3.6 2.1 1.1 0.3 13.0 14.1 3.8 5.5 0.1 2.5 15.0 15.0 6.6 11.3 3.0 0.3 8.3 0.1 0.1 0.2 0.1 0.1 0.1 0.2 9.9 8.2 14.9 15.0 15.0 12.2 13.0
0.1 0.2 0.8 4.6 0.2 0.1 0.0 0.1 0.0 0.1 1.8 0.1 0.7 0.1 0.1 0.0 0.1 4.8 4.4 15.0 11.6 12.9 0.4 14.7 1.3 3.9 0.1 0.1 0.0 0.1 0.1 0.5 5.5 0.3 15.0 13.8 8.1 12.9
0.2 0.1 0.1 0.1 0.1 0.1 0.1 0.0 0.1 0.1 0.2 0.1 0.1 0.1 0.1 0.0 0.1 0.2 6.2 1.9 0.4 8.4 15.0 15.0 10.7 14.4 15.0 0.3 0.1 0.1 0.1 0.1 0.2 0.2 15.0 14.6 1.7 11.5
2.0 0.1 0.0 0.0 0.1 0.0 0.0 0.0 0.1 0.1 0.1 1.0 0.2 0.3 0.1 0.0 0.0 0.1 0.1 0.1 0.1 0.0 1.3 13.1 6.9 5.0 0.7 9.0 11.7 0.1 1.2 0.4 0.1 0.2 15.0 15.0 15.0 15.0
0.1 0.0 0.0 0.0 0.0 0.1 0.0 0.0 0.0 0.0 0.1 0.0 0.0 0.0 0.1 0.1 0.1 0.0 0.1 0.1 0.1 0.1 0.1 0.1 1.3 3.8 4.3 14.1 0.2 15.0 6.8 13.9 4.4 6.6 4.4 0.3 15.0 15.0
0.1 0.0 0.0 0.0 0.0 0.0 0.1 0.1 0.0 0.1 0.1 0.0 0.1 0.1 0.0 0.1 0.1 0.1 2.1 1.4 0.4 1.2 0.2 0.2 0.1 0.1 0.2 1.6 10.6 4.6 6.0 10.2 7.8 13.0 7.0 0.3 1.0 7.0
15.0 15.0 0.1 0.0 0.0 0.0 0.1 0.1 0.1 0.1 0.0 0.0 0.0 0.0 0.0 0.1 0.0 0.1 0.1 0.1 0.1 6.5 0.9 0.1 0.2 0.2 0.1 0.0 0.1 15.0 14.5 15.0 3.3 0.6 14.5 15.0 13.0 11.3
15.0 15.0 15.0 15.0 4.3 0.1 0.0 0.0 0.1 0.1 0.1 0.1 0.0 0.0 0.0 0.0 0.0 0.0 0.0 0.0 0.1 0.1 0.1 0.1 0.1 0.1 0.1 0.1 0.0 0.1 13.3 15.0 4.9 1.1 1.5 4.5 9.7 9.3
15.0 15.0 15.0 15.0 15.0 15.0 0.6 0.1 0.0 0.0 0.1 0.0 0.0 0.0 0.0 0.1 0.1 0.0 0.1 0.1 0.1 0.1 0.1 0.1 2.6 10.3 2.0 11.1 3.2 0.1 0.1 9.0 14.8 15.0 15.0 4.6 1.1 0.2
15.0 15.0 15.0 15.0 15.0 15.0 15.0 0.3 0.0 0.0 0.0 0.0 0.0 0.0 0.0 0.0 0.1 0.1 0.1 0.0 0.1 0.1 0.1 0.1 0.1 0.1 0.2 0.5 0.1 0.2 0.1 0.1 0.1 2.0 6.8 7.6 11.7 0.8
15.0 15.0 15.0 15.0 15.0 15.0 15.0 15.0 0.3 0.0 0.0 0.0 0.0 0.0 0.0 0.0 0.0 0.0 0.0 0.1 0.1 0.1 0.1 0.1 0.1 0.1 1.2 7.6 5.3 1.5 0.3 0.2 0.3 0.2 0.1 0.2 0.3 0.3

GFSNE_sfc_vis_279.txt.gz
Visibility
15.0 15.0 15.0 15.0 15.0 15.0 15.0 15.0 15.0 15.0 15.0 15.0 15.0 15.0 15.0 15.0 15.0 15.0 15.0 0.3 0.2 0.7 15.0 15.0 15.0 15.0 15.0 15.0 15.0 15.0 15.0 15.0 15.0 15.0 15.0 15.0 15.0 15.0
15.0 15.0 15.0 15.0 15.0 15.0 15.0 15.0 15.0 15.0 15.0 15.0 15.0 15.0 15.0 15.0 12.2 15.0 15.0 6.3 0.1 0.1 0.5 15.0 15.0 15.0 15.0 15.0 15.0 15.0 15.0 15.0 15.0 15.0 15.0 15.0 15.0 15.0
15.0 15.0 15.0 15.0 15.0 15.0 15.0 15.0 15.0 15.0 15.0 15.0 15.0 15.0 15.0 15.0 15.0 15.0 15.0 15.0 5.1 0.1 0.1 4.1 15.0 15.0 15.0 15.0 15.0 15.0 15.0 15.0 15.0 15.0 15.0 15.0 15.0 15.0
5.8 5.2 15.0 15.0 15.0 15.0 15.0 15.0 15.0 15.0 15.0 15.0 15.0 15.0 15.0 15.0 15.0 15.0 15.0 15.0 15.0 0.5 0.1 0.3 15.0 15.0 15.0 15.0 15.0 15.0 15.0 15.0 15.0 15.0 15.0 15.0 15.0 15.0
12.3 5.2 6.3 7.2 15.0 15.0 15.0 15.0 15.0 15.0 15.0 15.0 15.0 15.0 15.0 15.0 15.0 15.0 15.0 15.0 12.1 1.0 0.1 0.2 0.8 13.4 15.0 15.0 15.0 15.0 15.0 15.0 15.0 15.0 15.0 15.0 15.0 15.0
3.9 2.9 5.6 9.5 8.0 15.0 15.0 15.0 10.6 13.5 7.8 15.0 15.0 15.0 15.0 15.0 15.0 8.2 0.0 0.1 0.1 0.3 8.1 2.6 1.4 1.0 15.0 15.0 15.0 15.0 15.0 15.0 15.0 15.0 15.0 15.0 15.0 15.0
5.9 14.8 14.4 3.4 5.5 10.2 4.5 8.3 14.9 9.8 8.4 14.7 15.0 15.0 15.0 0.0 12.0 15.0 15.0 0.1 0.1 0.2 0.1 0.1 0.1 0.1 0.2 6.7 15.0 15.0 15.0 15.0 15.0 15.0 15.0 15.0 15.0 15.0
15.0 15.0 15.0 0.0 0.0 0.1 0.1 0.4 14.9 5.6 14.9 15.0 15.0 15.0 15.0 15.0 15.0 15.0 5.7 0.0 0.0 0.1 0.1 0.0 0.1 0.0 0.1 4.0 15.0 15.0 15.0 15.0 15.0 15.0 15.0 15.0 15.0 15.0
15.0 14.8 14.4 15.0 4.3 15.0 2.0 0.1 0.8 13.1 6.5 15.0 15.0 14.2 15.0 15.0 5.4 13.9 7.8 15.0 15.0 0.0 1.6 0.0 0.0 0.0 0.1 11.5 15.0 15.0 15.0 15.0 15.0 15.0 15.0 15.0 15.0 15.0
15.0 15.0 14.2 12.7 15.0 9.5 15.0 15.0 15.0 15.0 11.2 10.0 15.0 15.0 11.8 15.0 15.0 12.6 9.1 1.9 0.0 0.0 12.2 0.0 0.0 0.0 0.0 0.1 15.0 15.0 15.0 15.0 15.0 15.0 15.0 15.0 15.0 12.1
15.0 15.0 15.0 15.0 0.6 0.1 6.9 15.0 15.0 15.0 15.0 15.0 15.0 15.0 10.0 0.7 2.3 7.6 0.9 0.0 0.0 0.0 0.1 0.0 0.0 0.0 0.0 0.0 0.1 15.0 15.0 15.0 15.0 15.0 15.0 15.0 15.0 13.0
15.0 15.0 13.3 11.5 15.0 14.9 0.1 0.1 15.0 15.0 15.0 15.0 0.5 0.1 0.5 1.5 0.1 2.8 9.1 0.8 1.1 0.0 0.0 0.0 0.0 0.0 0.0 0.0 0.0 0.1 0.3 14.0 15.0 15.0 15.0 15.0 11.1 11.5
15.0 15.0 15.0 15.0 1.4 0.2 0.3 0.1 0.2 9.8 10.3 14.2 15.0 15.0 15.0 15.0 12.6 1.0 3.3 11.5 9.2 3.1 5.0 5.2 0.0 0.0 0.0 0.0 0.0 0.0 0.1 0.3 0.6 14.0 15.0 15.0 12.2 12.2
15.0 15.0 15.0 15.0 0.1 0.1 0.1 0.1 0.0 0.0 0.2 15.0 15.0 15.0 15.0 6.7 5.4 10.8 2.7 1.9 5.9 9.9 0.2 4.0 0.1 0.1 0.0 0.0 0.0 0.0 0.0 0.1 0.8 0.2 1.4 15.0 14.7 15.0
15.0 15.0 15.0 1.2 0.1 0.2 7.3 0.1 0.0 0.0 0.0 0.0 0.1 15.0 15.0 15.0 15.0 2.0 6.1 3.1 2.2 0.2 2.7 8.7 3.9 1.8 13.9 0.1 0.0 0.0 0.0 0.0 0.1 0.1 0.3 0.1 0.4 5.3
15.0 15.0 0.2 0.1 0.1 0.1 0.4 15.0 0.2 0.0 0.0 0.0 0.1 12.6 1.2 0.1 0.1 0.1 0.1 0.1 0.1 0.1 0.1 3.4 9.3 6.6 0.2 6.7 12.0 0.1 0.2 0.3 0.1 0.1 0.1 0.2 1.5 14.6
15.0 0.6 0.0 0.0 0.0 0.0 0.1 0.1 0.2 0.1 0.1 0.0 0.0 0.0 0.0 0.0 0.0 0.1 0.1 0.1 0.1 3.6 0.1 0.1 0.3 6.0 11.0 1.1 0.1 0.7 0.1 0.3 0.1 0.1 0.1 0.1 0.2 10.1
15.0 3.7 0.5 0.1 0.1 0.1 0.0 0.0 0.1 0.1 0.1 0.0 0.0 0.0 0.0 0.0 0.1 0.0 0.1 0.2 0.2 0.4 0.2 0.1 0.1 0.1 0.1 0.2 7.1 1.5 0.8 0.4 0.1 0.1 0.1 0.0 0.1 3.6
15.0 15.0 15.0 15.0 15.0 14.6 0.3 0.1 0.0 0.0 0.1 0.1 0.1 0.0 0.0 0.0 0.1 0.0 0.0 0.1 0.1 1.0 1.7 1.5 0.2 4.6 0.1 0.1 0.0 10.4 5.6 1.1 0.2 0.1 0.2 0.4 0.8 12.9
15.0 15.0 15.0 15.0 15.0 13.2 15.0 4.9 0.1 0.0 0.0 0.1 0.1 0.0 0.0 0.0 0.1 0.1 0.1 0.0 0.1 0.0 0.1 0.1 0.2 5.9 5.1 0.1 0.0 0.0 12.7 0.5 1.3 0.1 0.1 1.7 2.5 11.7
15.0 15.0 15.0 15.0 15.0 15.0 15.0 15.0 14.9 0.2 0.0 0.0 0.1 0.1 0.0 0.1 0.1 0.1 0.1 0.1 0.1 0.1 0.0 0.1 0.6 6.8 0.2 0.2 0.0 0.1 0.0 10.8 15.0 6.6 7.9 2.9 0.1 0.1
15.0 15.0 15.0 15.0 9.0 11.3 15.0 15.0 15.0 15.0 4.6 0.0 0.0 0.0 0.0 0.1 0.1 0.0 0.0 0.0 0.0 0.0 0.0 0.0 0.0 0.1 0.1 0.1 0.1 0.1 0.1 0.1 0.8 10.9 13.1 12.8 12.0 0.3
9.6 12.9 15.0 8.6 6.7 8.1 11.0 15.0 15.0 13.1 7.4 3.3 0.0 0.0 0.0 0.0 0.1 0.1 0.1 0.1 0.1 0.1 0.1 0.1 0.1 0.1 0.1 0.1 0.1 1.4 0.2 0.1 0.1 0.1 0.1 1.1 1.2 1.0

GFSNE_sfc_vis_282.txt.gz
Visibility
15.0 15.0 15.0 15.0 15.0 15.0 15.0 15.0 15.0 15.0 15.0 15.0 15.0 15.0 15.0 15.0 15.0 15.0 15.0 15.0 0.5 5.0 14.1 15.0 15.0 15.0 15.0 15.0 15.0 15.0 15.0 15.0 15.0 15.0 15.0 15.0 15.0 15.0
15.0 15.0 15.0 15.0 15.0 15.0 15.0 15.0 15.0 15.0 15.0 15.0 15.0 15.0 15.0 15.0 15.0 15.0 15.0 15.0 0.2 0.1 0.1 1.3 15.0 15.0 15.0 15.0 15.0 15.0 15.0 15.0 15.0 15.0 15.0 15.0 15.0 15.0
14.8 9.1 15.0 15.0 10.5 15.0 15.0 15.0 15.0 15.0 15.0 15.0 15.0 15.0 15.0 15.0 15.0 15.0 15.0 15.0 7.7 0.1 0.1 0.1 0.1 3.6 15.0 15.0 15.0 15.0 15.0 15.0 15.0 15.0 15.0 15.0 15.0 15.0
13.3 5.9 15.0 11.1 5.2 9.4 10.0 8.5 15.0 15.0 15.0 15.0 15.0 15.0 15.0 15.0 15.0 15.0 15.0 15.0 15.0 0.3 0.0 0.0 0.1 0.1 0.3 15.0 15.0 15.0 15.0 15.0 15.0 15.0 15.0 15.0 15.0 15.0
4.6 14.5 15.0 15.0 8.7 3.2 9.6 12.3 15.0 15.0 15.0 15.0 15.0 15.0 15.0 15.0 15.0 15.0 15.0 15.0 15.0 8.0 0.0 0.0 0.0 0.1 0.1 0.2 14.1 15.0 15.0 15.0 15.0 15.0 15.0 15.0 15.0 15.0
14.9 9.3 8.0 12.9 2.3 2.2 2.4 2.4 6.9 11.9 9.9 14.3 11.8 13.0 14.7 15.0 14.2 15.0 15.0 15.0 15.0 15.0 0.7 1.1 0.1 0.1 0.1 0.1 0.3 15.0 15.0 15.0 15.0 15.0 15.0 15.0 15.0 15.0
15.0 15.0 14.7 2.1 2.8 6.5 7.4 7.2 2.4 4.1 10.5 8.2 10.2 15.0 14.6 7.4 15.0 13.8 15.0 15.0 15.0 15.0 15.0 15.0 2.1 0.1 0.1 0.1 0.3 0.8 15.0 15.0 15.0 15.0 15.0 15.0 15.0 15.0
15.0 15.0 15.0 15.0 0.3 0.0 0.0 0.0 0.5 3.9 6.4 14.9 15.0 15.0 15.0 15.0 5.7 15.0 15.0 15.0 0.0 15.0 15.0 0.6 1.1 0.4 13.2 14.7 9.4 14.9 0.5 15.0 15.0 15.0 15.0 15.0 15.0 15.0
15.0 15.0 15.0 15.0 15.0 15.0 1.8 0.0 0.0 0.1 4.0 15.0 15.0 15.0 15.0 15.0 13.7 15.0 15.0 12.8 5.7 2.9 11.0 0.2 0.8 0.0 15.0 15.0 15.0 4.3 0.8 6.9 15.0 15.0 15.0 15.0 15.0 15.0
15.0 15.0 15.0 15.0 0.6 12.9 15.0 8.4 8.4 8.4 0.8 8.3 15.0 15.0 15.0 15.0 15.0 15.0 15.0 15.0 15.0 0.0 15.0 0.0 0.0 0.0 14.1 15.0 15.0 2.6 0.3 0.5 15.0 15.0 15.0 15.0 15.0 10.7
15.0 15.0 15.0 15.0 15.0 13.8 0.6 14.5 15.0 15.0 14.4 15.0 15.0 15.0 15.0 15.0 15.0 15.0 15.0 0.3 0.0 0.0 0.1 0.1 0.0 0.0 0.0 0.0 0.1 0.4 0.4 2.0 13.2 15.0 15.0 15.0 14.0 15.0
15.0 15.0 15.0 15.0 15.0 15.0 0.1 0.1 0.1 5.9 13.9 10.4 8.3 4.9 1.4 15.0 1.1 6.7 15.0 0.1 0.1 0.0 0.0 0.1 0.0 0.0 0.0 0.0 0.0 0.1 0.1 0.3 14.4 15.0 14.2 4.8 15.0 15.0
15.0 15.0 15.0 15.0 15.0 15.0 3.4 0.1 5.4 9.2 6.6 13.7 10.8 12.8 9.6 15.0 15.0 15.0 15.0 14.3 15.0 6.4 2.2 5.2 0.0 0.0 0.0 0.0 0.0 0.0 0.0 0.1 0.1 0.3 15.0 11.0 10.3 12.2
15.0 15.0 15.0 15.0 15.0 15.0 0.2 15.0 15.0 0.2 0.1 0.1 0.1 0.3 15.0 15.0 15.0 15.0 15.0 15.0 14.2 15.0 8.0 15.0 0.1 0.6 0.0 0.0 0.0 0.0 0.0 0.0 0.1 0.1 0.1 1.4 4.3 6.9
15.0 15.0 15.0 15.0 15.0 15.0 15.0 0.7 2.8 11.3 0.4 0.1 0.0 0.0 2.1 15.0 15.0 15.0 15.0 15.0 15.0 15.0 15.0 15.0 15.0 13.9 15.0 7.6 0.1 0.0 0.0 0.0 0.0 0.0 0.1 0.1 0.1 0.2
15.0 15.0 15.0 6.5 0.2 2.5 2.1 15.0 14.9 0.4 0.1 0.1 0.1 0.1 13.3 12.9 0.1 0.3 0.1 0.1 0.1 0.0 0.1 3.1 15.0 15.0 0.2 12.9 14.1 0.0 0.1 0.0 0.0 0.0 0.1 0.1 0.2 9.8
3.8 0.4 14.4 14.6 15.0 15.0 9.0 5.0 0.2 0.1 0.1 0.1 0.1 0.1 0.1 0.1 0.1 0.1 0.1 0.1 0.0 0.0 0.0 0.0 0.1 12.4 14.9 13.2 0.1 0.4 0.1 0.1 0.1 0.1 0.1 0.1 0.1 0.2
6.0 0.1 0.2 0.1 0.6 15.0 15.0 15.0 15.0 0.4 0.2 0.1 0.1 0.2 0.1 0.1 0.1 0.1 0.1 0.1 0.1 0.0 0.1 0.1 0.0 0.0 0.1 0.8 9.1 0.7 0.2 0.3 0.1 0.1 0.1 0.1 0.2 4.3
5.2 11.2 5.4 4.0 1.1 15.0 15.0 15.0 15.0 15.0 0.1 0.1 0.1 0.1 0.1 0.1 0.1 0.0 0.1 0.1 0.1 0.1 12.2 14.1 0.1 0.1 0.0 0.0 0.2 10.1 9.2 0.7 0.1 0.1 0.5 1.7 7.5 9.3
15.0 5.8 6.5 15.0 15.0 15.0 15.0 14.8 15.0 15.0 11.4 14.9 0.1 0.0 0.1 0.1 0.1 0.1 0.1 0.0 0.1 0.1 0.1 0.1 0.1 0.1 0.6 0.1 0.0 0.0 0.3 0.1 0.2 0.2 0.1 0.2 0.2 3.6
15.0 15.0 15.0 5.6 15.0 15.0 15.0 13.8 0.2 0.1 11.4 0.2 3.0 0.1 0.0 0.1 0.1 0.1 0.1 0.1 0.1 0.1 0.1 0.1 0.4 3.3 0.1 0.1 0.0 0.0 0.0 2.3 1.5 0.9 0.1 0.1 0.1 0.1
15.0 15.0 15.0 15.0 15.0 15.0 15.0 15.0 15.0 11.9 0.4 11.6 10.8 0.1 0.1 0.0 0.0 0.1 0.1 0.1 0.1 0.1 0.1 0.1 0.0 0.0 0.1 0.1 0.0 0.0 0.1 0.1 1.0 7.1 7.2 10.0 0.7 0.3
15.0 15.0 15.0 15.0 14.7 15.0 15.0 15.0 13.8 0.4 15.0 15.0 15.0 12.6 0.1 0.1 0.0 0.0 0.0 0.0 0.0 0.0 0.1 0.1 0.1 0.1 0.1 0.1 0.1 0.2 0.1 0.1 0.2 0.1 0.2 0.9 0.8 1.0